Location: Falniów
(50.3639°N, 19.9642°E)
Time: 19:56:15
(UTC+00:00)

SL-08 R/B - Pass Details

Date: 22 April 2026
Orbit: 667 x 728 km, 98.5° (Epoch: 13 May)

Event Time Altitude Azimuth Distance (km) Brightness Sun altitude
Rises 18:28:23 0° 21° (NNE) 3,161 6.8 -7.0°
Reaches altitude 10° 18:30:53 10° 31° (NNE) 2,236 5.9 -7.3°
Maximum altitude 18:35:19 33° 96° (E) 1,219 4.1 -8.0°
Drops below altitude 10° 18:39:42 10° 160° (SSE) 2,214 5.4 -8.6°
Sets 18:42:09 0° 170° (S) 3,125 6.3 -8.9°
